THOR 6

Last updated on June 17, 2019, 3:36 a.m. UTC

1 36033U 09058B   19167.80426244 -.00000017  00000-0  00000+0 0  9999
2 36033   0.0493 145.6062 0002330 317.1318  90.7091  1.00272420 35326
UTC
Height (km)
Latitude
Longitude
Inclination
Orbital Period
UTC large
Height (km)
Speed (km/s)
/
Latitude / Longitude
Inclination (degrees)
Orbital Period (minutes)
Azimuth
Elevation
Range (km)
Doppler Factor
iOS Compass Heading
iOS Angle

Next 30 passes for location: Hong Kong

Rise time Rise Azimuth (degrees) Set time Set Azimuth (degrees) Duration Max altitude (degrees)

No matching passes for this satellites